Lava Hot Springs, Idaho, United States (83246)
Lat: 42.62N, Lon: 112.01W
Wx Zone: IDZ023
Local Info
Past Weather Observations for Today

NOTE: This archive is for the closest National Weather Service station to Lava Hot Springs. Information may differ from the station used for current weather conditions.

Click here for Long-term Archive

Time Weather Temperature Dewpoint Humidity Pressure Winds Precip Visibility
07:53
Mostly Cloudy
50°F / 10°C 48°F / 9°C 94% 30.01 in
(1016 mb)
SW 4.6 mph
(SW 7 kph)
- 10SM
07:22
Overcast
Fog And Mist
48°F / 9°C 48°F / 9°C 100% 30.01 in
(1016 mb)
SW 4.6 mph
(SW 7 kph)
- 5SM
07:00
Overcast
Fog
48°F / 9°C 48°F / 9°C 100% 30.01 in
(1016 mb)
SSW 4.6 mph
(SSW 7 kph)
- 1/2SM
06:53
Overcast
Fog
46°F / 8°C 46°F / 8°C 100% 30.01 in
(1016 mb)
SSW 4.6 mph
(SSW 7 kph)
- 1/4SM
06:02
Mostly Cloudy
Fog And Mist
46°F / 8°C 46°F / 8°C 100% 30.01 in
(1016 mb)
SW 5.8 mph
(SW 9 kph)
- 3/4SM
05:53
Partly Cloudy
Fog And Mist
46°F / 8°C 46°F / 8°C 100% 30.01 in
(1016 mb)
S 5.8 mph
(S 9 kph)
- 3/4SM
05:39
Partly Cloudy
Fog
45°F / 7°C 45°F / 7°C 100% 30.01 in
(1016 mb)
S 6.9 mph
(S 11 kph)
- 1/8SM
05:31
Mostly Cloudy
Fog
45°F / 7°C 45°F / 7°C 100% 29.98 in
(1015 mb)
S 5.8 mph
(S 9 kph)
- 10SM
05:24
Mostly Cloudy
Fog
45°F / 7°C 45°F / 7°C 100% 29.98 in
(1015 mb)
SW 3.5 mph
(SW 6 kph)
- 10SM
04:53
Partly Cloudy
43°F / 6°C 43°F / 6°C 100% 29.98 in
(1015 mb)
SW 4.6 mph
(SW 7 kph)
- 10SM
04:40
Partly Cloudy
43°F / 6°C 43°F / 6°C 100% 29.98 in
(1015 mb)
SW 4.6 mph
(SW 7 kph)
- 10SM
04:15
Overcast
43°F / 6°C 43°F / 6°C 100% 29.98 in
(1015 mb)
NW 3.5 mph
(NW 6 kph)
- 10SM
03:53
Partly Cloudy
43°F / 6°C 43°F / 6°C 100% 29.98 in
(1015 mb)
Calm - 10SM
02:53
Clear
45°F / 7°C 45°F / 7°C 100% 30.01 in
(1016 mb)
N 3.5 mph
(N 6 kph)
- 10SM
01:53
Partly Cloudy
45°F / 7°C 45°F / 7°C 100% 29.98 in
(1015 mb)
SW 4.6 mph
(SW 7 kph)
- 10SM
01:40
Overcast
Fog And Mist
46°F / 8°C 46°F / 8°C 100% 29.98 in
(1015 mb)
SW 5.8 mph
(SW 9 kph)
- 2SM
01:36
Obscured
Fog And Mist
46°F / 8°C 46°F / 8°C 100% 29.98 in
(1015 mb)
SW 4.6 mph
(SW 7 kph)
- 3/4SM
01:20
Overcast
Fog
46°F / 8°C 46°F / 8°C 100% 29.98 in
(1015 mb)
Calm - 1/4SM
01:12
Overcast
Fog
46°F / 8°C 46°F / 8°C 100% 29.98 in
(1015 mb)
Calm - 1/4SM
01:02
Mostly Cloudy
Fog
46°F / 8°C 46°F / 8°C 100% 29.98 in
(1015 mb)
Calm - 1/2SM
00:53
Overcast
Fog And Mist
46°F / 8°C 46°F / 8°C 100% 29.98 in
(1015 mb)
Calm - 1SM
00:48
Mostly Cloudy
Fog And Mist
46°F / 8°C 46°F / 8°C 100% 29.98 in
(1015 mb)
Variable 3.5 mph
(Variable 6 kph)
- 3/4SM
00:29
Partly Cloudy
Fog And Mist
48°F / 9°C 48°F / 9°C 100% 29.98 in
(1015 mb)
N 4.6 mph
(N 7 kph)
- 3/4SM
00:24
Partly Cloudy
Fog And Mist
48°F / 9°C 48°F / 9°C 100% 29.98 in
(1015 mb)
N 3.5 mph
(N 6 kph)
- 1 3/4SM
Time Weather Temperature Dewpoint Humidity Pressure Winds Precip Visibility


Weather for websites

WeatherForYou.com, LLC is not responsible for any damages or problems caused by this service. Current weather conditions are obtained from the closest station including government and personal stations which may have varying degrees of accuracy. Weather forecasts are derived from the NOAA NDFD. Like all things, this site belongs to Jesus Christ... He just trusts us to maintain it. If you have any questions or comments email webmaster@weatherforyou.com

Copyright © 2015, WeatherForYou.com LLC. All rights reserved.